Location: Champseau
(45.8333°N, 1.7667°E)
Time: 15:19:23
(UTC+00:00)

X-37B - Pass Details

Date: 30 September 2021
Orbit: 385 x 389 km, 45.0° (Epoch: 17 October)

Event Time Altitude Azimuth Distance (km) Brightness Sun altitude
Exits shadow 03:39:22 35° 100° (E) 650 2.1 -23.2°
Drops below altitude 10° 03:41:21 10° 95° (E) 1,413 4.3 -22.8°
Sets 03:43:25 0° 94° (E) 2,268 5.6 -22.5°
